This is the latest recevied weather packets stored in our database for station/object OK3MS-5. If no packets are shown the sender has not sent any weather packets the latest 10 day(s).
| Time | Temp. | Humidity | Pressure | Rain* | Wind** | Luminosity | Snow |
|---|---|---|---|---|---|---|---|
| 1787585403 | 22.22° C | 41% | 1017.3 hPa | 0 mm | - | 185 W/m² | - |
| 1787585103 | 22.22° C | 42% | 1017.2 hPa | 0 mm | - | 272 W/m² | - |
| 1787584805 | 22.22° C | 42% | 1017.3 hPa | 0 mm | - | 246 W/m² | - |
| 1787584503 | 22.78° C | 39% | 1017.2 hPa | 0 mm | - | 300 W/m² | - |
| 1787584205 | 22.22° C | 37% | 1017.2 hPa | 0 mm | - | 314 W/m² | - |
| 1787583904 | 22.78° C | 37% | 1017.3 hPa | 0 mm | - | 316 W/m² | - |
| 1787583603 | 22.78° C | 38% | 1017.4 hPa | 0 mm | - | 262 W/m² | - |
| 1787583304 | 22.22° C | 37% | 1017.5 hPa | 0 mm | - | 359 W/m² | - |
| 1787583004 | 22.22° C | 38% | 1017.6 hPa | 0 mm | - | 366 W/m² | - |
| 1787582704 | 22.22° C | 40% | 1017.7 hPa | 0 mm | - | 306 W/m² | - |
| 1787582408 | 22.22° C | 38% | 1017.7 hPa | 0 mm | - | 358 W/m² | - |
| 1787582103 | 22.22° C | 38% | 1017.7 hPa | 0 mm | - | 349 W/m² | - |
| 1787581803 | 22.78° C | 37% | 1017.6 hPa | 0 mm | - | 342 W/m² | - |
| 1787581506 | 22.78° C | 37% | 1017.7 hPa | 0 mm | - | 416 W/m² | - |
| 1787581204 | 22.78° C | 37% | 1017.6 hPa | 0 mm | - | 390 W/m² | - |
| 1787580905 | 22.22° C | 37% | 1017.6 hPa | 0 mm | - | 499 W/m² | - |
| 1787580604 | 22.78° C | 37% | 1017.8 hPa | 0 mm | - | 321 W/m² | - |
| 1787580304 | 22.22° C | 38% | 1017.9 hPa | 0 mm | - | 480 W/m² | - |
| 1787580002 | 22.22° C | 39% | 1017.8 hPa | 0 mm | - | 393 W/m² | - |
| 1787579703 | 22.22° C | 39% | 1017.9 hPa | 0 mm | - | 494 W/m² | - |
| 1787579404 | 22.22° C | 38% | 1018 hPa | 0 mm | - | 492 W/m² | - |
| 1787579102 | 22.22° C | 40% | 1018 hPa | 0 mm | - | 528 W/m² | - |
| 1787578802 | 22.78° C | 39% | 1018 hPa | 0 mm | - | 421 W/m² | - |
| 1787578504 | 22.22° C | 39% | 1018.1 hPa | 0 mm | - | 370 W/m² | - |
| 1787578202 | 22.22° C | 39% | 1018.1 hPa | 0 mm | - | 573 W/m² | - |
* Rain latest hour (hover to see other rain measurements)
** Current wind speed in m/s (hover to see current wind gust speed)